COSMOS 1275 DEB, 13471

Orbit data source: Space-Track

COSMOS 1275 DEB, 13471 is space debris in LEO originally from a launch on Thu, 04 Jun 1981 UTC launched from the Plesetsk Missile And Space Complex (PKMTR). Debris objects in space refer to the collection of defunct objects orbiting the Earth. Examples of debris include non-operational satellites, rocket bodies, and fragments generated from explosions, collisions, or faulty payload assembly.

Loading next visibility...
Identifier
13471, 1981-053FT
Orbit
LEO
Country
Flag of CISCIS
Related business
Manufacturer
Unknown
Mission
Spacecraft
Bus & Motor
Unknown
Mass
Unknown
Launch date (UTC)
1981-06-04 (45 years ago)
Launch vehicle
Unknown
Launch site
Plesetsk Missile And Space Complex (PKMTR)
Object type
Payload
Rocket body
Debris
Shape & HBR
Unknown shape, 0.1 m
Radar Cross Section
Medium (>0.1 m² and <1 m²)

Expand to show TLE details & history
Last TLE update: 11 hours ago

TLE from 11 hours ago
0 COSMOS 1275 DEB
1 13471U 81053FT  26255.11144745  .00001175  00000-0  73534-3 0  9999
2 13471  82.8052 118.4010 0051895  57.5792 105.7843 14.03217435239722
Epoch: 2026-09-12T02:40Z
TLE epoch observation values (Epoch: 2026-09-12T02:40:29.059Z)
Latitude
15.9155°
Longitude
-94.89728°
Altitude
895.374 km
Speed
7.4 km/s
True Right ascension
19h 45m 23s
True Declination
15° 49' 36"
Sunlit
Object was in full shadow at epoch
Visualization orbit readout
Latitude
Unknown
Longitude
Unknown
Altitude
Unknown
Speed
Unknown
Apparent Right ascension
Unknown
Apparent Declination
Unknown
Sunlit
N/A
Visualization observer readout
Local Sidereal Time
05:39:12
Azimuth
Unknown
Elevation
Unknown
Doppler factor
Unknown
Orbital elements
Apogee altitude
917.455 km
Perigee altitude
842.125 km
Semi-major axis
7,257.927 km
Eccentricity
0.00519
Inclination
82.8052°
RAAN
118.401°
Arg. of periapsis
57.5792°
True anomaly
106.35553°
Mean anomaly
105.7843°
Eccentric anomaly
106.07002°
Mean motion
3.51014 °/min
Orbital period
102.56 mins
BSTAR
0.00073534
Loading maneuver chart data...
Computing Atmospheric mass density...
Loading historical data...
Loading historical data...
Loading historical data...
Loading historical data...
Loading historical data...
Loading historical data...
Loading historical data...

Documentation

Showing up to 5 results
|